User: anonymous   Login
Location: Theydon Bois
(51.6750°N, 0.1050°E)
Time: 19:38:01
(UTC+01:00)
Language:

CZ-2D R/B - Orbit

View from above orbital plane
View from above orbital plane
View from above satellite
View from above satellite

Ground track
Ground track

The orbit data is extracted from the following two-line orbital elements,

1 28738U 05024B   18201.16762997  .00000399  00000-0  27184-4 0  9995
2 28738  97.4515 234.1884 0013731  76.4260 283.8499 15.11575612715922
Epoch (UTC): 20 July 2018 04:01:23
Eccentricity: 0.0013731
inclination: 97.4515°
perigee height: 522 km
apogee height: 541 km
right ascension of ascending node: 234.1884°
argument of perigee: 76.4260°
revolutions per day: 15.11575612
mean anomaly at epoch: 283.8499°
orbit number at epoch: 71592

The dashed part of the orbit path shows where the satellite is in the earth's shadow,  

DLR